Location: Utrecht
(52.0917°N, 5.1178°E)
Time: 02:50:12
(UTC+02:00)

X-37B - Pass Details

Date: 28 June 2021
Orbit: 383 x 392 km, 45.0° (Epoch: 01 July)

Event Time Altitude Azimuth Distance (km) Brightness Sun altitude
Rises 01:01:37 0° 260° (W) 2,257 4.5 -14.1°
Reaches altitude 10° 01:04:16 10° 237° (WSW) 1,402 3.2 -14.2°
Enters shadow 01:04:26 11° 234° (SW) 1,359 3.1 -14.2°
